| time (UTC) | temp C | wind direction | speed KPH | gust KPH | rain 1hr cm | rain 24hr cm | rain mn cm | humidity % | barometer mb |
| 20260906211539 | 31 | 119 | 11.3 | 20.9 | 0.00 | 0.00 | 0.00 | 35 | 1015.9 |
| 20260906211036 | 30 | 145 | 8.0 | 19.3 | 0.00 | 0.00 | 0.00 | 35 | 1015.9 |
| 20260906210527 | 30 | 115 | 6.4 | 19.3 | 0.00 | 0.00 | 0.00 | 36 | 1015.9 |
| 20260906210026 | 30 | 150 | 8.0 | 19.3 | 0.00 | 0.00 | 0.00 | 36 | 1016.1 |
| 20260906205525 | 30 | 105 | 9.7 | 22.5 | 0.00 | 0.00 | 0.00 | 37 | 1016.0 |
| 20260906205025 | 30 | 130 | 16.1 | 22.5 | 0.00 | 0.00 | 0.00 | 36 | 1016.1 |
| 20260906204530 | 30 | 132 | 8.0 | 19.3 | 0.00 | 0.00 | 0.00 | 37 | 1016.2 |
| 20260906204024 | 30 | 117 | 8.0 | 19.3 | 0.00 | 0.00 | 0.00 | 37 | 1016.2 |
| 20260906203524 | 30 | 206 | 4.8 | 17.7 | 0.00 | 0.00 | 0.00 | 35 | 1016.3 |
| 20260906203024 | 30 | 128 | 3.2 | 19.3 | 0.00 | 0.00 | 0.00 | 35 | 1016.4 |
| 20260906202525 | 30 | 180 | 8.0 | 17.7 | 0.00 | 0.00 | 0.00 | 36 | 1016.4 |
| 20260906202024 | 30 | 240 | 8.0 | 17.7 | 0.00 | 0.00 | 0.00 | 36 | 1016.4 |
| 20260906201521 | 30 | 242 | 3.2 | 17.7 | 0.00 | 0.00 | 0.00 | 36 | 1016.4 |
| 20260906201020 | 30 | 190 | 6.4 | 17.7 | 0.00 | 0.00 | 0.00 | 37 | 1016.5 |
| 20260906200518 | 30 | 201 | 1.6 | 24.1 | 0.00 | 0.00 | 0.00 | 36 | 1016.5 |
| 20260906200033 | 30 | 200 | 11.3 | 24.1 | 0.00 | 0.00 | 0.00 | 36 | 1016.6 |
| 20260906195518 | 30 | 171 | 4.8 | 22.5 | 0.00 | 0.00 | 0.00 | 37 | 1016.6 |
| 20260906195017 | 30 | 140 | 9.7 | 22.5 | 0.00 | 0.00 | 0.00 | 38 | 1016.7 |
| 20260906194516 | 30 | 135 | 8.0 | 16.1 | 0.00 | 0.00 | 0.00 | 37 | 1016.7 |
| 20260906194019 | 30 | 173 | 6.4 | 24.1 | 0.00 | 0.00 | 0.00 | 39 | 1016.7 |
| 20260906193515 | 30 | 182 | 6.4 | 24.1 | 0.00 | 0.00 | 0.00 | 39 | 1016.8 |
| 20260906193015 | 30 | 223 | 4.8 | 22.5 | 0.00 | 0.00 | 0.00 | 38 | 1016.9 |
| 20260906192513 | 30 | 176 | 8.0 | 22.5 | 0.00 | 0.00 | 0.00 | 39 | 1016.9 |
| 20260906192013 | 30 | 182 | 3.2 | 17.7 | 0.00 | 0.00 | 0.00 | 39 | 1016.9 |
| 20260906191514 | 30 | 140 | 8.0 | 17.7 | 0.00 | 0.00 | 0.00 | 39 | 1017.0 |
| 20260906191010 | 29 | 190 | 8.0 | 22.5 | 0.00 | 0.00 | 0.00 | 40 | 1017.0 |
| 20260906190511 | 29 | 184 | 9.7 | 22.5 | 0.00 | 0.00 | 0.00 | 40 | 1017.0 |
| 20260906190010 | 29 | 203 | 11.3 | 22.5 | 0.00 | 0.00 | 0.00 | 41 | 1017.0 |
| 20260906185508 | 29 | 200 | 11.3 | 25.7 | 0.00 | 0.00 | 0.00 | 41 | 1017.1 |
| 20260906185007 | 28 | 201 | 8.0 | 17.7 | 0.00 | 0.00 | 0.00 | 42 | 1017.1 |
| 20260906184506 | 28 | 244 | 11.3 | 17.7 | 0.00 | 0.00 | 0.00 | 43 | 1017.2 |
| 20260906184005 | 28 | 203 | 11.3 | 17.7 | 0.00 | 0.00 | 0.00 | 43 | 1017.2 |
| 20260906183606 | 28 | 221 | 6.4 | 20.9 | 0.00 | 0.00 | 0.00 | 43 | 1017.2 |
| 20260906183002 | 28 | 190 | 9.7 | 24.1 | 0.00 | 0.00 | 0.00 | 44 | 1017.3 |
| 20260906182501 | 28 | 219 | 11.3 | 24.1 | 0.00 | 0.00 | 0.00 | 44 | 1017.6 |
| 20260906182002 | 28 | 217 | 14.5 | 20.9 | 0.00 | 0.00 | 0.00 | 44 | 1017.5 |
| 20260906181504 | 28 | 188 | 11.3 | 24.1 | 0.00 | 0.00 | 0.00 | 44 | 1017.6 |
| 20260906181059 | 28 | 200 | 8.0 | 27.4 | 0.00 | 0.00 | 0.00 | 45 | 1017.6 |
| 20260906180558 | 27 | 187 | 9.7 | 27.4 | 0.00 | 0.00 | 0.00 | 46 | 1017.6 |
| 20260906175557 | 27 | 227 | 8.0 | 20.9 | 0.00 | 0.00 | 0.00 | 46 | 1017.8 |
| 20260906175057 | 27 | 192 | 16.1 | 20.9 | 0.00 | 0.00 | 0.00 | 46 | 1017.9 |
| 20260906174558 | 27 | 191 | 12.9 | 19.3 | 0.00 | 0.00 | 0.00 | 46 | 1017.9 |
| 20260906174055 | 27 | 198 | 8.0 | 19.3 | 0.00 | 0.00 | 0.00 | 47 | 1018.0 |
| 20260906173554 | 27 | 236 | 9.7 | 19.3 | 0.00 | 0.00 | 0.00 | 47 | 1018.0 |
| 20260906173053 | 26 | 192 | 12.9 | 24.1 | 0.00 | 0.00 | 0.00 | 47 | 1018.1 |
| 20260906172551 | 26 | 186 | 9.7 | 24.1 | 0.00 | 0.00 | 0.00 | 49 | 1018.1 |
| 20260906172051 | 26 | 221 | 16.1 | 22.5 | 0.00 | 0.00 | 0.00 | 49 | 1018.2 |
| 20260906171605 | 26 | 217 | 16.1 | 24.1 | 0.00 | 0.00 | 0.00 | 50 | 1018.2 |
| 20260906171049 | 26 | 216 | 17.7 | 24.1 | 0.00 | 0.00 | 0.00 | 50 | 1018.3 |
| 20260906170549 | 26 | 211 | 17.7 | 25.7 | 0.00 | 0.00 | 0.00 | 50 | 1018.3 |
| 20260906170103 | 26 | 200 | 16.1 | 20.9 | 0.00 | 0.00 | 0.00 | 50 | 1018.4 |
| 20260906165552 | 25 | 216 | 16.1 | 27.4 | 0.00 | 0.00 | 0.00 | 50 | 1018.4 |
| 20260906165047 | 25 | 215 | 14.5 | 27.4 | 0.00 | 0.00 | 0.00 | 51 | 1018.5 |
| 20260906164547 | 25 | 199 | 17.7 | 29.0 | 0.00 | 0.00 | 0.00 | 51 | 1018.5 |
| 20260906164050 | 25 | 198 | 20.9 | 29.0 | 0.00 | 0.00 | 0.00 | 51 | 1018.5 |
| 20260906163546 | 25 | 218 | 20.9 | 25.7 | 0.00 | 0.00 | 0.00 | 51 | 1018.5 |
| 20260906163046 | 25 | 190 | 16.1 | 27.4 | 0.00 | 0.00 | 0.00 | 50 | 1018.5 |
| 20260906162545 | 25 | 219 | 12.9 | 27.4 | 0.00 | 0.00 | 0.00 | 50 | 1018.5 |
| 20260906162043 | 25 | 182 | 16.1 | 27.4 | 0.00 | 0.00 | 0.00 | 51 | 1018.6 |
| 20260906161542 | 24 | 215 | 19.3 | 29.0 | 0.00 | 0.00 | 0.00 | 50 | 1018.5 |
| 20260906161043 | 24 | 193 | 19.3 | 27.4 | 0.00 | 0.00 | 0.00 | 51 | 1018.5 |
| 20260906160540 | 24 | 196 | 17.7 | 27.4 | 0.00 | 0.00 | 0.00 | 50 | 1018.6 |
| 20260906160039 | 23 | 194 | 16.1 | 27.4 | 0.00 | 0.00 | 0.00 | 52 | 1018.6 |
| 20260906155540 | 23 | 202 | 17.7 | 27.4 | 0.00 | 0.00 | 0.00 | 52 | 1018.6 |
| 20260906155038 | 23 | 193 | 17.7 | 27.4 | 0.00 | 0.00 | 0.00 | 53 | 1018.7 |
| 20260906154542 | 23 | 206 | 17.7 | 24.1 | 0.00 | 0.00 | 0.00 | 54 | 1018.6 |
| 20260906154034 | 23 | 211 | 16.1 | 24.1 | 0.00 | 0.00 | 0.00 | 54 | 1018.6 |
| 20260906153535 | 22 | 198 | 14.5 | 27.4 | 0.00 | 0.00 | 0.00 | 55 | 1018.6 |
| 20260906153035 | 22 | 200 | 14.5 | 30.6 | 0.00 | 0.00 | 0.00 | 57 | 1018.5 |
| 20260906152533 | 22 | 207 | 16.1 | 30.6 | 0.00 | 0.00 | 0.00 | 58 | 1018.6 |
| 20260906152030 | 21 | 185 | 14.5 | 27.4 | 0.00 | 0.00 | 0.00 | 59 | 1018.6 |
| 20260906151529 | 21 | 202 | 19.3 | 30.6 | 0.00 | 0.00 | 0.00 | 59 | 1018.6 |
| 20260906151030 | 21 | 196 | 22.5 | 29.0 | 0.00 | 0.00 | 0.00 | 59 | 1018.6 |
| 20260906150527 | 21 | 215 | 20.9 | 29.0 | 0.00 | 0.00 | 0.00 | 60 | 1018.6 |
| 20260906150027 | 21 | 179 | 22.5 | 30.6 | 0.00 | 0.00 | 0.00 | 60 | 1018.6 |
| 20260906145525 | 21 | 219 | 22.5 | 30.6 | 0.00 | 0.00 | 0.00 | 61 | 1018.7 |
| 20260906145027 | 20 | 212 | 14.5 | 27.4 | 0.00 | 0.00 | 0.00 | 63 | 1018.7 |
| 20260906144524 | 20 | 188 | 17.7 | 27.4 | 0.00 | 0.00 | 0.00 | 64 | 1018.7 |
| 20260906144021 | 20 | 195 | 14.5 | 32.2 | 0.00 | 0.00 | 0.00 | 65 | 1018.7 |
| 20260906143520 | 20 | 205 | 14.5 | 32.2 | 0.00 | 0.00 | 0.00 | 66 | 1018.8 |
| 20260906143021 | 19 | 199 | 12.9 | 25.7 | 0.00 | 0.00 | 0.00 | 68 | 1018.8 |
| 20260906142518 | 18 | 205 | 17.7 | 29.0 | 0.00 | 0.00 | 0.00 | 68 | 1018.9 |
| 20260906142021 | 18 | 213 | 19.3 | 29.0 | 0.00 | 0.00 | 0.00 | 69 | 1019.0 |
| 20260906141519 | 18 | 195 | 19.3 | 27.4 | 0.00 | 0.00 | 0.00 | 70 | 1019.0 |
| 20260906141014 | 18 | 210 | 17.7 | 29.0 | 0.00 | 0.00 | 0.00 | 70 | 1019.0 |
| 20260906140513 | 18 | 211 | 16.1 | 27.4 | 0.00 | 0.00 | 0.00 | 71 | 1018.9 |
| 20260906140011 | 18 | 188 | 14.5 | 22.5 | 0.00 | 0.00 | 0.00 | 72 | 1018.9 |
| 20260906135511 | 18 | 180 | 12.9 | 22.5 | 0.00 | 0.00 | 0.00 | 73 | 1018.9 |
| 20260906135009 | 17 | 194 | 14.5 | 20.9 | 0.00 | 0.00 | 0.00 | 74 | 1018.9 |
| 20260906134511 | 17 | 207 | 12.9 | 24.1 | 0.00 | 0.00 | 0.00 | 75 | 1018.8 |
| 20260906134011 | 17 | 202 | 8.0 | 22.5 | 0.00 | 0.00 | 0.00 | 76 | 1018.8 |
| 20260906133506 | 17 | 196 | 14.5 | 22.5 | 0.00 | 0.00 | 0.00 | 77 | 1018.7 |
| 20260906133005 | 17 | 225 | 14.5 | 20.9 | 0.00 | 0.00 | 0.00 | 77 | 1018.7 |
| 20260906132505 | 16 | 190 | 12.9 | 20.9 | 0.00 | 0.00 | 0.00 | 79 | 1018.8 |
| 20260906132004 | 16 | 201 | 12.9 | 20.9 | 0.00 | 0.00 | 0.00 | 80 | 1018.7 |
| 20260906131510 | 16 | 202 | 14.5 | 20.9 | 0.00 | 0.00 | 0.00 | 81 | 1018.7 |
| 20260906131005 | 15 | 198 | 12.9 | 17.7 | 0.00 | 0.00 | 0.00 | 83 | 1018.8 |
| 20260906130504 | 15 | 199 | 11.3 | 16.1 | 0.00 | 0.00 | 0.00 | 83 | 1018.8 |
| 20260906130004 | 15 | 202 | 12.9 | 16.1 | 0.00 | 0.00 | 0.00 | 84 | 1018.7 |
| 20260906125504 | 15 | 213 | 11.3 | 17.7 | 0.00 | 0.00 | 0.00 | 84 | 1018.8 |
| 20260906125004 | 15 | 205 | 11.3 | 16.1 | 0.00 | 0.00 | 0.00 | 84 | 1018.7 |
| 20260906124504 | 15 | 209 | 11.3 | 16.1 | 0.00 | 0.00 | 0.00 | 85 | 1018.6 |
| 20260906124002 | 15 | 193 | 8.0 | 14.5 | 0.00 | 0.00 | 0.00 | 85 | 1018.5 |
| 20260906123501 | 15 | 185 | 8.0 | 12.9 | 0.00 | 0.00 | 0.00 | 85 | 1018.5 |
| 20260906123002 | 15 | 180 | 6.4 | 14.5 | 0.00 | 0.00 | 0.00 | 85 | 1018.6 |
| 20260906122502 | 15 | 205 | 9.7 | 14.5 | 0.00 | 0.00 | 0.00 | 84 | 1018.7 |
| 20260906122002 | 15 | 207 | 9.7 | 16.1 | 0.00 | 0.00 | 0.00 | 84 | 1018.6 |
| 20260906121500 | 15 | 219 | 9.7 | 16.1 | 0.00 | 0.00 | 0.00 | 83 | 1018.5 |
| 20260906121103 | 15 | 201 | 11.3 | 17.7 | 0.00 | 0.00 | 0.00 | 83 | 1018.5 |
| 20260906120601 | 15 | 207 | 14.5 | 20.9 | 0.00 | 0.00 | 0.00 | 83 | 1018.5 |
| 20260906120059 | 15 | 202 | 14.5 | 22.5 | 0.00 | 0.00 | 0.00 | 83 | 1018.5 |
| 20260906115559 | 15 | 215 | 12.9 | 19.3 | 0.00 | 0.00 | 0.00 | 84 | 1018.5 |
| 20260906115503 | 15 | 219 | 12.9 | 19.3 | 0.00 | 0.00 | 0.00 | 84 | 1018.5 |
| 20260906115058 | 15 | 207 | 14.5 | 19.3 | 0.00 | 0.00 | 0.00 | 84 | 1018.4 |
| 20260906114601 | 15 | 210 | 14.5 | 19.3 | 0.00 | 0.00 | 0.00 | 85 | 1018.5 |
| 20260906114058 | 15 | 219 | 11.3 | 17.7 | 0.00 | 0.00 | 0.00 | 86 | 1018.5 |
| 20260906113559 | 15 | 205 | 11.3 | 17.7 | 0.00 | 0.00 | 0.00 | 86 | 1018.5 |
| 20260906113058 | 15 | 211 | 12.9 | 19.3 | 0.00 | 0.00 | 0.00 | 86 | 1018.5 |
| 20260906112558 | 15 | 209 | 12.9 | 17.7 | 0.00 | 0.00 | 0.00 | 86 | 1018.4 |
| 20260906112058 | 15 | 203 | 12.9 | 16.1 | 0.00 | 0.00 | 0.00 | 87 | 1018.4 |
| 20260906111600 | 15 | 205 | 8.0 | 17.7 | 0.00 | 0.00 | 0.00 | 87 | 1018.4 |
| 20260906111056 | 15 | 200 | 12.9 | 17.7 | 0.00 | 0.00 | 0.00 | 87 | 1018.5 |
| 20260906110557 | 15 | 202 | 11.3 | 17.7 | 0.00 | 0.00 | 0.00 | 87 | 1018.6 |
| 20260906110058 | 15 | 186 | 9.7 | 17.7 | 0.00 | 0.00 | 0.00 | 87 | 1018.5 |
| 20260906105555 | 15 | 206 | 8.0 | 14.5 | 0.00 | 0.00 | 0.00 | 87 | 1018.5 |
| 20260906105056 | 15 | 187 | 8.0 | 16.1 | 0.00 | 0.00 | 0.00 | 87 | 1018.6 |
| 20260906104602 | 15 | 200 | 9.7 | 14.5 | 0.00 | 0.00 | 0.00 | 86 | 1018.5 |
| 20260906104057 | 15 | 192 | 9.7 | 14.5 | 0.00 | 0.00 | 0.00 | 86 | 1018.3 |
| 20260906103556 | 15 | 193 | 8.0 | 14.5 | 0.00 | 0.00 | 0.00 | 86 | 1018.4 |
| 20260906103055 | 15 | 201 | 9.7 | 16.1 | 0.00 | 0.00 | 0.00 | 85 | 1018.4 |
| 20260906102554 | 15 | 205 | 8.0 | 14.5 | 0.00 | 0.00 | 0.00 | 85 | 1018.2 |
| 20260906102054 | 15 | 196 | 6.4 | 16.1 | 0.00 | 0.00 | 0.00 | 86 | 1018.1 |
| 20260906101556 | 15 | 200 | 8.0 | 16.1 | 0.00 | 0.00 | 0.00 | 86 | 1018.2 |
| 20260906101055 | 15 | 186 | 8.0 | 16.1 | 0.00 | 0.00 | 0.00 | 87 | 1018.2 |
| 20260906100555 | 15 | 202 | 11.3 | 16.1 | 0.00 | 0.00 | 0.00 | 89 | 1018.2 |
| 20260906100054 | 14 | 206 | 9.7 | 14.5 | 0.00 | 0.00 | 0.00 | 89 | 1018.0 |
| 20260906095555 | 14 | 207 | 8.0 | 11.3 | 0.00 | 0.00 | 0.00 | 88 | 1017.9 |
| 20260906095051 | 14 | 201 | 6.4 | 9.7 | 0.00 | 0.00 | 0.00 | 87 | 1018.0 |
| 20260906094602 | 15 | 194 | 3.2 | 12.9 | 0.00 | 0.00 | 0.00 | 87 | 1018.0 |
| 20260906094048 | 15 | 201 | 9.7 | 12.9 | 0.00 | 0.00 | 0.00 | 87 | 1018.0 |
| 20260906093549 | 15 | 215 | 9.7 | 12.9 | 0.00 | 0.00 | 0.00 | 87 | 1018.1 |
| 20260906093115 | 15 | 211 | 8.0 | 16.1 | 0.00 | 0.00 | 0.00 | 86 | 1018.1 |
| 20260906092547 | 15 | 205 | 9.7 | 16.1 | 0.00 | 0.00 | 0.00 | 87 | 1017.9 |
| 20260906092047 | 15 | 211 | 11.3 | 17.7 | 0.00 | 0.00 | 0.00 | 87 | 1017.9 |
| 20260906091547 | 15 | 207 | 11.3 | 16.1 | 0.00 | 0.00 | 0.00 | 87 | 1017.9 |
| 20260906091048 | 15 | 211 | 11.3 | 17.7 | 0.00 | 0.00 | 0.00 | 87 | 1017.9 |
| 20260906090545 | 15 | 217 | 12.9 | 22.5 | 0.00 | 0.00 | 0.00 | 86 | 1017.9 |
| 20260906090045 | 15 | 220 | 12.9 | 17.7 | 0.00 | 0.00 | 0.00 | 87 | 1018.0 |
| 20260906085544 | 15 | 222 | 12.9 | 19.3 | 0.00 | 0.00 | 0.00 | 86 | 1017.9 |
| 20260906085045 | 15 | 202 | 12.9 | 19.3 | 0.00 | 0.00 | 0.00 | 86 | 1017.9 |
| 20260906084544 | 15 | 212 | 14.5 | 19.3 | 0.00 | 0.00 | 0.00 | 85 | 1018.0 |
| 20260906084043 | 15 | 216 | 16.1 | 25.7 | 0.00 | 0.00 | 0.00 | 85 | 1018.0 |
| 20260906083543 | 15 | 229 | 17.7 | 27.4 | 0.00 | 0.00 | 0.00 | 84 | 1017.9 |
| 20260906083048 | 16 | 220 | 17.7 | 27.4 | 0.00 | 0.00 | 0.00 | 84 | 1017.9 |
| 20260906082542 | 15 | 217 | 17.7 | 24.1 | 0.00 | 0.00 | 0.00 | 85 | 1017.9 |
| 20260906082042 | 15 | 217 | 16.1 | 20.9 | 0.00 | 0.00 | 0.00 | 85 | 1018.0 |
| 20260906081541 | 15 | 208 | 16.1 | 22.5 | 0.00 | 0.00 | 0.00 | 85 | 1018.2 |
| 20260906081040 | 15 | 215 | 14.5 | 25.7 | 0.00 | 0.00 | 0.00 | 84 | 1018.2 |
| 20260906080540 | 15 | 221 | 16.1 | 25.7 | 0.00 | 0.00 | 0.00 | 84 | 1018.1 |
| 20260906080041 | 15 | 214 | 16.1 | 22.5 | 0.00 | 0.00 | 0.00 | 84 | 1018.1 |
| 20260906075538 | 15 | 217 | 14.5 | 24.1 | 0.00 | 0.00 | 0.00 | 84 | 1018.2 |
| 20260906075037 | 15 | 217 | 17.7 | 24.1 | 0.00 | 0.00 | 0.00 | 84 | 1018.3 |
| 20260906074537 | 15 | 217 | 16.1 | 20.9 | 0.00 | 0.00 | 0.00 | 83 | 1018.3 |
| 20260906074035 | 15 | 215 | 16.1 | 20.9 | 0.00 | 0.00 | 0.00 | 83 | 1018.3 |
| 20260906073539 | 16 | 217 | 14.5 | 22.5 | 0.00 | 0.00 | 0.00 | 82 | 1018.3 |
| 20260906073033 | 16 | 221 | 14.5 | 22.5 | 0.00 | 0.00 | 0.00 | 81 | 1018.3 |
| 20260906072533 | 16 | 211 | 14.5 | 22.5 | 0.00 | 0.00 | 0.00 | 81 | 1018.2 |
| 20260906072033 | 16 | 218 | 16.1 | 22.5 | 0.00 | 0.00 | 0.00 | 80 | 1018.2 |
| 20260906071531 | 17 | 209 | 16.1 | 27.4 | 0.00 | 0.00 | 0.00 | 78 | 1018.4 |
| 20260906071031 | 17 | 202 | 17.7 | 27.4 | 0.00 | 0.00 | 0.00 | 78 | 1018.3 |
| 20260906070528 | 17 | 199 | 16.1 | 29.0 | 0.00 | 0.00 | 0.00 | 80 | 1018.4 |
| 20260906070028 | 16 | 203 | 17.7 | 24.1 | 0.00 | 0.00 | 0.00 | 81 | 1018.4 |
| 20260906065529 | 16 | 196 | 12.9 | 25.7 | 0.00 | 0.00 | 0.00 | 81 | 1018.5 |
| 20260906065027 | 16 | 207 | 14.5 | 20.9 | 0.00 | 0.00 | 0.00 | 81 | 1018.6 |
| 20260906064525 | 16 | 203 | 9.7 | 17.7 | 0.00 | 0.00 | 0.00 | 81 | 1018.4 |
| 20260906064025 | 16 | 215 | 11.3 | 22.5 | 0.00 | 0.00 | 0.00 | 81 | 1018.3 |
| 20260906063524 | 16 | 188 | 11.3 | 22.5 | 0.00 | 0.00 | 0.00 | 82 | 1018.3 |
| 20260906063023 | 16 | 183 | 11.3 | 17.7 | 0.00 | 0.00 | 0.00 | 83 | 1018.4 |
| 20260906062523 | 16 | 191 | 9.7 | 16.1 | 0.00 | 0.00 | 0.00 | 83 | 1018.3 |
| 20260906062020 | 16 | 189 | 9.7 | 16.1 | 0.00 | 0.00 | 0.00 | 82 | 1018.2 |
| 20260906061522 | 16 | 181 | 9.7 | 14.5 | 0.00 | 0.00 | 0.00 | 82 | 1018.1 |
| 20260906061017 | 16 | 183 | 9.7 | 14.5 | 0.00 | 0.00 | 0.00 | 81 | 1018.1 |
| 20260906060519 | 16 | 179 | 8.0 | 14.5 | 0.00 | 0.00 | 0.00 | 81 | 1018.0 |
| 20260906060015 | 16 | 193 | 9.7 | 16.1 | 0.00 | 0.00 | 0.00 | 81 | 1018.0 |
| 20260906055514 | 17 | 180 | 8.0 | 17.7 | 0.00 | 0.00 | 0.00 | 81 | 1018.1 |
| 20260906055014 | 16 | 196 | 9.7 | 17.7 | 0.00 | 0.00 | 0.00 | 81 | 1018.1 |
| 20260906054514 | 16 | 206 | 9.7 | 17.7 | 0.00 | 0.00 | 0.00 | 80 | 1018.0 |
| 20260906054016 | 17 | 190 | 11.3 | 17.7 | 0.00 | 0.00 | 0.00 | 80 | 1018.2 |
| 20260906053512 | 17 | 205 | 9.7 | 17.7 | 0.00 | 0.00 | 0.00 | 80 | 1018.2 |
| 20260906053011 | 17 | 202 | 12.9 | 19.3 | 0.00 | 0.00 | 0.00 | 79 | 1018.4 |
| 20260906052512 | 17 | 198 | 9.7 | 17.7 | 0.00 | 0.00 | 0.00 | 79 | 1018.2 |
| 20260906052111 | 17 | 151 | 8.0 | 17.7 | 0.00 | 0.00 | 0.00 | 79 | 1018.2 |
| 20260906051510 | 17 | 212 | 11.3 | 20.9 | 0.00 | 0.00 | 0.00 | 77 | 1018.2 |
| 20260906051009 | 17 | 202 | 9.7 | 20.9 | 0.00 | 0.00 | 0.00 | 77 | 1018.2 |
| 20260906050508 | 17 | 181 | 12.9 | 17.7 | 0.00 | 0.00 | 0.00 | 78 | 1018.3 |
| 20260906050006 | 17 | 222 | 9.7 | 16.1 | 0.00 | 0.00 | 0.00 | 78 | 1018.3 |
| 20260906045508 | 17 | 204 | 3.2 | 8.0 | 0.00 | 0.00 | 0.00 | 76 | 1018.4 |
| 20260906045004 | 17 | 194 | 3.2 | 9.7 | 0.00 | 0.00 | 0.00 | 76 | 1018.3 |
| 20260906044504 | 17 | 184 | 4.8 | 11.3 | 0.00 | 0.00 | 0.00 | 75 | 1018.4 |
| 20260906044003 | 18 | 165 | 3.2 | 14.5 | 0.00 | 0.00 | 0.00 | 75 | 1018.3 |
| 20260906043504 | 18 | 173 | 6.4 | 14.5 | 0.00 | 0.00 | 0.00 | 75 | 1018.4 |
| 20260906043003 | 18 | 198 | 6.4 | 19.3 | 0.00 | 0.00 | 0.00 | 74 | 1018.4 |
| 20260906042502 | 18 | 173 | 6.4 | 19.3 | 0.00 | 0.00 | 0.00 | 74 | 1018.4 |
| 20260906042002 | 18 | 150 | 4.8 | 14.5 | 0.00 | 0.00 | 0.00 | 73 | 1018.4 |
| 20260906041502 | 18 | 139 | 3.2 | 14.5 | 0.00 | 0.00 | 0.00 | 72 | 1018.4 |
| 20260906041001 | 19 | 138 | 6.4 | 19.3 | 0.00 | 0.00 | 0.00 | 72 | 1018.4 |
| 20260906040501 | 19 | 188 | 8.0 | 24.1 | 0.00 | 0.00 | 0.00 | 71 | 1018.4 |
| 20260906040003 | 19 | 162 | 8.0 | 24.1 | 0.00 | 0.00 | 0.00 | 71 | 1018.4 |
| 20260906035601 | 20 | 195 | 11.3 | 19.3 | 0.00 | 0.00 | 0.00 | 71 | 1018.4 |
| 20260906035100 | 20 | 178 | 8.0 | 20.9 | 0.00 | 0.00 | 0.00 | 71 | 1018.4 |
| 20260906034605 | 20 | 153 | 11.3 | 27.4 | 0.00 | 0.00 | 0.00 | 72 | 1018.3 |
| 20260906034100 | 19 | 207 | 9.7 | 17.7 | 0.00 | 0.00 | 0.00 | 73 | 1018.4 |
| 20260906034003 | 19 | 160 | 9.7 | 20.9 | 0.00 | 0.00 | 0.00 | 73 | 1018.3 |
| 20260906033600 | 19 | 182 | 8.0 | 24.1 | 0.00 | 0.00 | 0.00 | 73 | 1018.3 |
| 20260906033100 | 20 | 198 | 11.3 | 22.5 | 0.00 | 0.00 | 0.00 | 73 | 1018.3 |
| 20260906032559 | 20 | 150 | 12.9 | 22.5 | 0.00 | 0.00 | 0.00 | 71 | 1018.3 |
| 20260906032059 | 20 | 189 | 12.9 | 19.3 | 0.00 | 0.00 | 0.00 | 70 | 1018.3 |
| 20260906031558 | 20 | 204 | 9.7 | 20.9 | 0.00 | 0.00 | 0.00 | 69 | 1018.2 |
| 20260906031057 | 20 | 195 | 6.4 | 19.3 | 0.00 | 0.00 | 0.00 | 67 | 1018.2 |
| 20260906030557 | 20 | 186 | 8.0 | 19.3 | 0.00 | 0.00 | 0.00 | 66 | 1018.3 |
| 20260906025556 | 20 | 163 | 8.0 | 16.1 | 0.00 | 0.00 | 0.00 | 64 | 1018.3 |
| 20260906025056 | 21 | 192 | 6.4 | 14.5 | 0.00 | 0.00 | 0.00 | 63 | 1018.2 |
| 20260906024600 | 21 | 134 | 3.2 | 16.1 | 0.00 | 0.00 | 0.00 | 62 | 1018.1 |
| 20260906024056 | 21 | 192 | 6.4 | 16.1 | 0.00 | 0.00 | 0.00 | 62 | 1018.2 |
| 20260906023558 | 21 | 160 | 3.2 | 11.3 | 0.00 | 0.00 | 0.00 | 62 | 1018.1 |
| 20260906023056 | 21 | 143 | 1.6 | 17.7 | 0.00 | 0.00 | 0.00 | 63 | 1018.1 |
| 20260906022555 | 20 | 184 | 6.4 | 17.7 | 0.00 | 0.00 | 0.00 | 64 | 1018.0 |
| 20260906022054 | 20 | 118 | 6.4 | 11.3 | 0.00 | 0.00 | 0.00 | 64 | 1018.0 |
| 20260906021555 | 21 | 131 | 4.8 | 8.0 | 0.00 | 0.00 | 0.00 | 63 | 1018.1 |
| 20260906021054 | 21 | 126 | 3.2 | 11.3 | 0.00 | 0.00 | 0.00 | 62 | 1017.9 |
| 20260906020553 | 21 | 140 | 1.6 | 11.3 | 0.00 | 0.00 | 0.00 | 62 | 1017.8 |
| 20260906020053 | 21 | 123 | 3.2 | 9.7 | 0.00 | 0.00 | 0.00 | 61 | 1017.8 |
| 20260906015551 | 21 | 181 | 3.2 | 12.9 | 0.00 | 0.00 | 0.00 | 60 | 1017.8 |
| 20260906015052 | 22 | 163 | 4.8 | 12.9 | 0.00 | 0.00 | 0.00 | 60 | 1017.7 |
| 20260906014632 | 22 | 184 | 4.8 | 12.9 | 0.00 | 0.00 | 0.00 | 59 | 1017.6 |
| 20260906014052 | 22 | 175 | 4.8 | 12.9 | 0.00 | 0.00 | 0.00 | 58 | 1017.6 |
| 20260906013552 | 22 | 171 | 3.2 | 9.7 | 0.00 | 0.00 | 0.00 | 58 | 1017.4 |
| 20260906013058 | 23 | 163 | 3.2 | 11.3 | 0.00 | 0.00 | 0.00 | 59 | 1017.6 |
| 20260906012551 | 23 | 126 | 3.2 | 16.1 | 0.00 | 0.00 | 0.00 | 60 | 1017.6 |
| 20260906012051 | 24 | 160 | 3.2 | 17.7 | 0.00 | 0.00 | 0.00 | 59 | 1017.5 |
| 20260906011552 | 25 | 128 | 12.9 | 17.7 | 0.00 | 0.00 | 0.00 | 57 | 1017.5 |
| 20260906011049 | 25 | 128 | 11.3 | 16.1 | 0.00 | 0.00 | 0.00 | 54 | 1017.6 |
| 20260906010549 | 25 | 124 | 6.4 | 14.5 | 0.00 | 0.00 | 0.00 | 48 | 1017.7 |
| 20260906010052 | 26 | 122 | 8.0 | 17.7 | 0.00 | 0.00 | 0.00 | 46 | 1017.7 |
| 20260906005548 | 26 | 136 | 9.7 | 20.9 | 0.00 | 0.00 | 0.00 | 45 | 1017.7 |
| 20260906005048 | 26 | 109 | 11.3 | 20.9 | 0.00 | 0.00 | 0.00 | 44 | 1017.6 |
| 20260906004549 | 26 | 134 | 6.4 | 12.9 | 0.00 | 0.00 | 0.00 | 43 | 1017.6 |
| 20260906004048 | 26 | 95 | 3.2 | 11.3 | 0.00 | 0.00 | 0.00 | 43 | 1017.5 |
| 20260906003548 | 26 | 81 | 3.2 | 12.9 | 0.00 | 0.00 | 0.00 | 43 | 1017.5 |
| 20260906003050 | 26 | 79 | 3.2 | 14.5 | 0.00 | 0.00 | 0.00 | 42 | 1017.5 |
| 20260906002547 | 26 | 78 | 8.0 | 19.3 | 0.00 | 0.00 | 0.00 | 41 | 1017.4 |
| 20260906002047 | 27 | 72 | 9.7 | 19.3 | 0.00 | 0.00 | 0.00 | 40 | 1017.4 |
| 20260906001548 | 27 | 65 | 6.4 | 17.7 | 0.00 | 0.00 | 0.00 | 40 | 1017.5 |
| 20260906001047 | 27 | 65 | 8.0 | 17.7 | 0.00 | 0.00 | 0.00 | 39 | 1017.4 |
| 20260906000549 | 27 | 66 | 8.0 | 20.9 | 0.00 | 0.00 | 0.00 | 38 | 1017.4 |
| 20260906000046 | 27 | 71 | 12.9 | 29.0 | 0.00 | 0.00 | 0.00 | 37 | 1017.4 |
| 20260905235545 | 27 | 71 | 9.7 | 29.0 | 0.00 | 0.00 | 0.00 | 38 | 1017.4 |
| 20260905235047 | 27 | 82 | 14.5 | 25.7 | 0.00 | 0.00 | 0.00 | 38 | 1017.5 |
| 20260905234545 | 27 | 77 | 14.5 | 25.7 | 0.00 | 0.00 | 0.00 | 36 | 1017.6 |
| 20260905234045 | 28 | 76 | 16.1 | 25.7 | 0.00 | 0.00 | 0.00 | 38 | 1017.5 |
| 20260905233545 | 28 | 95 | 11.3 | 24.1 | 0.00 | 0.00 | 0.00 | 37 | 1017.5 |
| 20260905233047 | 28 | 76 | 11.3 | 27.4 | 0.00 | 0.00 | 0.00 | 38 | 1017.5 |
| 20260905232545 | 27 | 80 | 14.5 | 29.0 | 0.00 | 0.00 | 0.00 | 38 | 1017.5 |
| 20260905232044 | 27 | 71 | 17.7 | 30.6 | 0.00 | 0.00 | 0.00 | 38 | 1017.5 |
| 20260905231545 | 28 | 68 | 20.9 | 30.6 | 0.00 | 0.00 | 0.00 | 36 | 1017.4 |
| 20260905231044 | 29 | 76 | 22.5 | 30.6 | 0.00 | 0.00 | 0.00 | 35 | 1017.4 |
| 20260905230544 | 30 | 93 | 17.7 | 24.1 | 0.00 | 0.00 | 0.00 | 32 | 1017.3 |
| 20260905230043 | 30 | 65 | 11.3 | 22.5 | 0.00 | 0.00 | 0.00 | 25 | 1017.3 |
| 20260905225544 | 30 | 88 | 9.7 | 20.9 | 0.00 | 0.00 | 0.00 | 25 | 1017.3 |
| 20260905225043 | 30 | 75 | 9.7 | 22.5 | 0.00 | 0.00 | 0.00 | 25 | 1017.4 |
| 20260905224543 | 30 | 75 | 11.3 | 17.7 | 0.00 | 0.00 | 0.00 | 25 | 1017.4 |
| 20260905224043 | 30 | 67 | 6.4 | 19.3 | 0.00 | 0.00 | 0.00 | 25 | 1017.5 |
| 20260905223542 | 30 | 40 | 9.7 | 19.3 | 0.00 | 0.00 | 0.00 | 25 | 1017.5 |
| 20260905223043 | 30 | 90 | 12.9 | 19.3 | 0.00 | 0.00 | 0.00 | 25 | 1017.5 |
| 20260905222543 | 30 | 45 | 6.4 | 12.9 | 0.00 | 0.00 | 0.00 | 26 | 1017.5 |
| 20260905222044 | 30 | 27 | 4.8 | 17.7 | 0.00 | 0.00 | 0.00 | 25 | 1017.5 |
| 20260905221604 | 31 | 51 | 6.4 | 17.7 | 0.00 | 0.00 | 0.00 | 24 | 1017.6 |
| 20260905221041 | 31 | 56 | 8.0 | 17.7 | 0.00 | 0.00 | 0.00 | 25 | 1017.6 |
| 20260905220540 | 31 | 56 | 3.2 | 16.1 | 0.00 | 0.00 | 0.00 | 24 | 1017.5 |
| 20260905220040 | 31 | 28 | 6.4 | 20.9 | 0.00 | 0.00 | 0.00 | 25 | 1017.5 |
| 20260905215542 | 31 | 15 | 9.7 | 20.9 | 0.00 | 0.00 | 0.00 | 25 | 1017.4 |
| 20260905215039 | 30 | 46 | 6.4 | 19.3 | 0.00 | 0.00 | 0.00 | 25 | 1017.3 |
| 20260905214540 | 31 | 301 | 6.4 | 16.1 | 0.00 | 0.00 | 0.00 | 25 | 1017.3 |
| 20260905214039 | 30 | 59 | 6.4 | 17.7 | 0.00 | 0.00 | 0.00 | 25 | 1017.3 |
| 20260905213539 | 31 | 107 | 11.3 | 17.7 | 0.00 | 0.00 | 0.00 | 24 | 1017.3 |
| 20260905213055 | 31 | 58 | 6.4 | 17.7 | 0.00 | 0.00 | 0.00 | 25 | 1017.3 |
| 20260905212538 | 31 | 17 | 4.8 | 17.7 | 0.00 | 0.00 | 0.00 | 25 | 1017.3 |
| 20260905212038 | 31 | 64 | 9.7 | 17.7 | 0.00 | 0.00 | 0.00 | 25 | 1017.4 |
| 20260905211543 | 30 | 15 | 8.0 | 20.9 | 0.00 | 0.00 | 0.00 | 26 | 1017.5 |